BAW2247 LTFM-EGKK

Flight info

Callsign BAW2247
Flight time N/A
Altitude 38000
Route VADEN1D/35L VADEN N618 GOL Y520 LUKOV Q8 DOLAP DCT VEBAR DCT BOSNA DCT RIFEN DCT SAFFA DCT ELMUR L613 RIPUS DCT DITON DCT HOC DCT LUL DCT RLP DCT ROTSI DCT KOTUN DCT NINAL DCT KESAX DCT KUNAV
Aircraft B77W/H-SDE1E2E3FGHIJ2J3J4J5M1RWXY/LB1D1

Departure

Time 2026-05-04 15:53
Airport İstanbul Airport (LTFM)

Arrival

Time N/A
Airport London Gatwick Airport (EGKK)
Time Latitude Longitude Altitude Speed Heading
2026-05-04 15:01 41.26246 28.73640 318 ft 0 kts 71°
2026-05-04 15:01 41.26249 28.73650 318 ft 0 kts 71°
2026-05-04 15:19 41.26473 28.74139 318 ft 0 kts 90°
2026-05-04 15:35 41.26473 28.74113 317 ft 4 kts 85°
2026-05-04 15:36 41.26460 28.74046 316 ft 4 kts 56°
2026-05-04 15:36 41.26442 28.74024 316 ft 4 kts
2026-05-04 15:36 41.26444 28.74023 315 ft 4 kts 359°
2026-05-04 15:37 41.26471 28.74022 316 ft 4 kts 359°
2026-05-04 15:37 41.26483 28.74022 317 ft 0 kts 360°
2026-05-04 15:43 41.26484 28.74022 318 ft 0 kts 360°
2026-05-04 15:43 41.26487 28.74022 318 ft 2 kts 360°
2026-05-04 15:44 41.26542 28.74021 318 ft 15 kts 359°
2026-05-04 15:44 41.26650 28.74020 318 ft 16 kts 359°
2026-05-04 15:44 41.26757 28.74017 318 ft 16 kts 359°
2026-05-04 15:44 41.26866 28.74015 318 ft 16 kts 359°
2026-05-04 15:45 41.26944 28.74010 317 ft 9 kts 347°
2026-05-04 15:45 41.26965 28.73940 317 ft 9 kts 268°
2026-05-04 15:45 41.26962 28.73846 317 ft 14 kts 268°
2026-05-04 15:45 41.26959 28.73689 317 ft 18 kts 269°
2026-05-04 15:46 41.26958 28.73523 317 ft 18 kts 269°
2026-05-04 15:46 41.26957 28.73361 317 ft 18 kts 270°
2026-05-04 15:46 41.26955 28.73200 315 ft 18 kts 268°
2026-05-04 15:46 41.26952 28.73052 312 ft 10 kts 269°
2026-05-04 15:47 41.26928 28.72986 315 ft 8 kts 200°
2026-05-04 15:47 41.26868 28.72990 313 ft 11 kts 178°
2026-05-04 15:47 41.26733 28.72994 317 ft 28 kts 179°
2026-05-04 15:47 41.26531 28.72996 316 ft 29 kts 179°
2026-05-04 15:48 41.26362 28.73000 317 ft 19 kts 179°
2026-05-04 15:48 41.26266 28.73002 317 ft 6 kts 179°
2026-05-04 15:48 41.26228 28.72982 317 ft 0 kts 237°
2026-05-04 15:49 41.26227 28.72978 317 ft 0 kts 244°
2026-05-04 15:49 41.26223 28.72966 317 ft 9 kts 249°
2026-05-04 15:49 41.26214 28.72779 319 ft 19 kts 270°
2026-05-04 15:50 41.26215 28.72667 318 ft 6 kts 270°
2026-05-04 15:50 41.26214 28.72638 318 ft 0 kts 268°
2026-05-04 15:51 41.26214 28.72624 318 ft 5 kts 268°
2026-05-04 15:51 41.26213 28.72576 318 ft 5 kts 268°
2026-05-04 15:51 41.26230 28.72537 319 ft 6 kts 334°
2026-05-04 15:52 41.26262 28.72528 319 ft 0 kts 355°
2026-05-04 15:52 41.26267 28.72527 318 ft 7 kts 355°
2026-05-04 15:52 41.26525 28.72519 318 ft 77 kts 359°
2026-05-04 15:52 41.27323 28.72502 301 ft 150 kts 359°
2026-05-04 15:53 41.28501 28.72443 594 ft 176 kts 358°
2026-05-04 15:53 41.29665 28.72405 1668 ft 162 kts 360°
2026-05-04 15:53 41.30818 28.72402 2330 ft 174 kts
2026-05-04 15:53 41.32082 28.72462 2771 ft 193 kts
2026-05-04 15:54 41.33526 28.72468 3063 ft 223 kts
2026-05-04 15:54 41.35126 28.72485 3711 ft 233 kts
2026-05-04 15:54 41.36738 28.72421 4491 ft 233 kts 352°
2026-05-04 15:54 41.38270 28.71670 4958 ft 241 kts 329°
2026-05-04 15:55 41.39445 28.70046 4907 ft 249 kts 307°
2026-05-04 15:55 41.40270 28.68064 5211 ft 246 kts 303°
2026-05-04 15:55 41.41124 28.66039 5202 ft 257 kts 305°
2026-05-04 15:55 41.42030 28.64002 5109 ft 254 kts 306°
2026-05-04 15:56 41.42932 28.62009 5058 ft 249 kts 306°
2026-05-04 15:56 41.43826 28.60050 5238 ft 249 kts 306°
2026-05-04 15:56 41.44727 28.58080 6098 ft 251 kts 306°
2026-05-04 15:56 41.45630 28.56098 7044 ft 252 kts 307°
2026-05-04 15:57 41.46544 28.54086 7861 ft 258 kts 308°
2026-05-04 15:57 41.47478 28.52025 8692 ft 262 kts 308°
2026-05-04 15:57 41.48423 28.49934 9580 ft 264 kts 309°
2026-05-04 15:57 41.49375 28.47820 10370 ft 270 kts 309°
2026-05-04 15:58 41.50386 28.45590 10706 ft 294 kts 308°
2026-05-04 15:58 41.51495 28.43142 10903 ft 323 kts 307°
2026-05-04 15:58 41.52281 28.41395 11067 ft 341 kts 307°
2026-05-04 15:58 41.53527 28.38603 11624 ft 357 kts 307°
2026-05-04 15:59 41.54815 28.35706 12404 ft 368 kts 307°
2026-05-04 15:59 41.56142 28.32728 13298 ft 378 kts 307°
2026-05-04 15:59 41.57504 28.29677 14120 ft 387 kts 306°
2026-05-04 15:59 41.58830 28.26510 15016 ft 394 kts 303°
2026-05-04 16:00 41.60073 28.23224 15981 ft 398 kts 301°
2026-05-04 16:00 41.61299 28.19889 16891 ft 403 kts 301°
2026-05-04 16:00 41.62548 28.16504 17779 ft 409 kts 301°
2026-05-04 16:00 41.63825 28.13077 18616 ft 415 kts 301°
2026-05-04 16:01 41.65128 28.09607 19391 ft 420 kts 302°
2026-05-04 16:01 41.66450 28.06096 20174 ft 426 kts 302°
2026-05-04 16:01 41.67797 28.02544 20947 ft 430 kts 303°
2026-05-04 16:01 41.69305 27.99080 21678 ft 433 kts 307°
2026-05-04 16:02 41.70957 27.95686 22415 ft 437 kts 309°
2026-05-04 16:02 41.72668 27.92294 23154 ft 442 kts 310°
2026-05-04 16:02 41.76135 27.85367 24068 ft 453 kts 309°
2026-05-04 16:03 41.77863 27.81842 24047 ft 452 kts 308°
2026-05-04 16:03 41.79570 27.78314 24053 ft 451 kts 308°
2026-05-04 16:03 41.81266 27.74788 24059 ft 450 kts 308°
2026-05-04 16:03 41.82963 27.71249 24038 ft 451 kts 308°
2026-05-04 16:04 41.84653 27.67720 24043 ft 450 kts 308°
2026-05-04 16:04 41.88030 27.60667 24048 ft 449 kts 308°
2026-05-04 16:04 41.89717 27.57137 24059 ft 449 kts 308°
2026-05-04 16:05 41.91400 27.53613 24057 ft 449 kts 308°
2026-05-04 16:05 41.93088 27.50075 24056 ft 450 kts 308°
2026-05-04 16:05 41.96459 27.42998 24040 ft 450 kts 307°
2026-05-04 16:06 41.98146 27.39449 24055 ft 450 kts 307°
2026-05-04 16:06 42.02651 27.29955 24051 ft 451 kts 307°
2026-05-04 16:07 42.04882 27.25241 24056 ft 451 kts 307°
2026-05-04 16:07 42.10551 27.15141 25288 ft 452 kts 317°
2026-05-04 16:08 42.12705 27.12050 25968 ft 454 kts 317°
2026-05-04 16:08 42.18046 27.01185 27660 ft 476 kts 298°
2026-05-04 16:09 42.20820 26.92992 28695 ft 484 kts 297°
2026-05-04 16:09 42.23633 26.84670 29655 ft 491 kts 297°
2026-05-04 16:10 42.26501 26.76250 30555 ft 494 kts 297°
2026-05-04 16:11 42.30772 26.63725 32323 ft 486 kts 297°
2026-05-04 16:11 42.32183 26.59581 32764 ft 486 kts 297°
2026-05-04 16:12 42.36399 26.47161 34250 ft 482 kts 297°
2026-05-04 16:12 42.40563 26.34835 35404 ft 480 kts 296°
2026-05-04 16:13 42.43325 26.26629 36120 ft 478 kts 296°
2026-05-04 16:13 42.46063 26.18465 36953 ft 475 kts 296°
2026-05-04 16:14 42.48783 26.10333 37681 ft 473 kts 296°
2026-05-04 16:14 42.51476 26.02259 38021 ft 476 kts 296°
2026-05-04 16:16 42.58201 25.81988 38050 ft 468 kts 296°
2026-05-04 16:17 42.64811 25.61914 38038 ft 464 kts 296°
2026-05-04 16:18 42.70062 25.45861 38050 ft 466 kts 296°
2026-05-04 16:19 42.76614 25.25698 38082 ft 467 kts 295°
2026-05-04 16:20 42.83154 25.05411 38080 ft 469 kts 296°
2026-05-04 16:22 42.89665 24.85075 38085 ft 468 kts 295°
2026-05-04 16:23 42.97439 24.60572 38108 ft 470 kts 295°
2026-05-04 16:25 43.05172 24.35972 38113 ft 470 kts 295°
2026-05-04 16:26 43.15744 24.08463 38097 ft 466 kts 304°
2026-05-04 16:28 43.24340 23.89742 38097 ft 465 kts 303°
2026-05-04 16:28 43.28527 23.77782 38101 ft 467 kts 287°
2026-05-04 16:29 43.30343 23.60120 38091 ft 470 kts 278°
2026-05-04 16:31 43.32249 23.37756 38087 ft 473 kts 278°
2026-05-04 16:32 43.34558 23.10828 38092 ft 475 kts 278°
2026-05-04 16:33 43.36072 22.92855 38082 ft 474 kts 278°
2026-05-04 16:34 43.37203 22.79388 38088 ft 471 kts 280°
2026-05-04 16:35 43.42675 22.53792 38083 ft 463 kts 290°
2026-05-04 16:36 43.45585 22.41110 38084 ft 463 kts 289°
2026-05-04 16:37 43.48464 22.28407 38057 ft 464 kts 289°
2026-05-04 16:38 43.52285 22.11431 38080 ft 464 kts 289°
2026-05-04 16:39 43.57032 21.90169 38076 ft 465 kts 289°
2026-05-04 16:40 43.60793 21.73172 38095 ft 465 kts 289°
2026-05-04 16:41 43.65472 21.51834 38091 ft 464 kts 289°
2026-05-04 16:43 43.70096 21.30533 38091 ft 462 kts 289°
2026-05-04 16:43 43.72844 21.17770 38087 ft 461 kts 289°
2026-05-04 16:45 43.78267 20.92357 38075 ft 459 kts 289°
2026-05-04 16:46 43.82442 20.72574 38090 ft 460 kts 288°
2026-05-04 16:47 43.86012 20.55512 38069 ft 461 kts 288°
2026-05-04 16:48 43.89561 20.38398 38089 ft 462 kts 288°
2026-05-04 16:49 43.93092 20.21237 38082 ft 462 kts 288°
2026-05-04 16:50 43.96583 20.04118 38069 ft 460 kts 288°
2026-05-04 16:51 43.99164 19.91368 38069 ft 459 kts 288°
2026-05-04 16:52 44.02588 19.74331 38072 ft 457 kts 288°
2026-05-04 16:53 44.05134 19.61569 38073 ft 457 kts 288°
2026-05-04 16:54 44.08505 19.44537 38062 ft 457 kts 287°
2026-05-04 16:55 44.13522 19.18921 38067 ft 457 kts 287°
2026-05-04 16:56 44.17221 18.97461 38054 ft 457 kts 285°
2026-05-04 16:57 44.19389 18.84533 38050 ft 456 kts 285°